SCP
2 2 2 2 2 2 2 2 2 2 1 1 1 1 1 1 1 1 2 2 2 2 2 2 1 1 1 1 1 1 1 1 1 1 1 1 1 1 0 0 0 0 0
3 2 2 2 2 2 2 2 2 2 1 1 1 1 1 1 1 1 2 2 2 2 2 2 1 1 1 1 1 1 1 1 1 1 1 1 1 1 1 0 0 0 0
3 2 2 2 2 2 2 2 2 1 1 1 1 1 1 1 1 1 2 2 2 2 2 2 2 1 1 1 1 1 1 1 1 1 1 1 1 1 1 1 0 0 0
2 2 2 2 2 2 1 1 1 1 1 1 1 1 1 1 1 1 1 2 2 2 2 2 1 1 1 1 1 1 1 1 1 1 1 1 1 1 1 1 1 0 0
2 2 1 1 1 1 1 1 1 1 1 1 1 1 1 1 1 1 1 1 1 1 1 1 1 1 1 1 1 1 1 1 1 1 1 1 1 1 1 1 1 0 0
1 1 1 1 1 1 1 1 1 1 1 1 1 1 1 1 1 1 1 1 1 1 1 1 1 1 1 1 1 1 1 1 1 1 1 1 1 1 1 1 1 0 0
1 1 1 1 1 1 1 1 1 1 1 1 1 1 1 1 1 1 1 1 1 1 1 1 1 1 1 1 1 1 1 1 1 1 1 1 1 1 1 1 1 0 0
1 1 1 1 1 1 1 1 1 1 1 1 1 1 1 1 1 1 1 1 1 1 1 1 1 1 1 1 1 1 1 1 1 1 1 1 1 1 1 1 1 1 0
1 1 1 1 1 0 0 1 1 0 0 0 1 1 1 1 1 1 1 1 1 1 1 1 1 1 1 1 1 1 1 1 1 1 1 1 1 1 1 1 1 1 0
1 1 1 1 1 1 0 0 0 0 0 0 0 1 1 1 1 0 1 1 1 1 1 1 1 1 1 1 1 1 1 1 1 1 1 1 1 1 1 1 1 1 1
1 1 1 1 1 1 1 1 0 0 0 0 0 0 0 0 0 0 0 0 1 1 1 1 1 1 1 1 1 1 1 0 0 1 1 1 1 1 1 1 1 1 1
2 2 2 2 2 1 1 1 1 0 0 0 0 0 0 0 0 0 0 0 0 1 1 1 1 1 1 1 1 0 0 0 0 0 1 1 1 1 1 1 1 1 1
2 2 2 2 2 2 1 1 1 1 0 0 0 0 0 0 0 0 0 0 0 0 1 1 1 1 1 1 1 0 0 0 0 0 0 0 1 1 1 1 1 1 1
2 2 2 2 2 2 1 1 1 1 1 0 0 0 0 0 0 0 0 0 0 0 0 1 1 1 1 1 1 0 0 0 0 0 0 0 0 0 0 0 0 0 0
2 2 2 2 2 2 1 1 1 1 1 0 0 0 0 0 0 0 0 0 0 0 0 0 1 1 1 1 0 0 0 0 0 0 0 0 0 0 0 0 0 0 0
2 2 2 2 2 2 1 1 1 1 1 0 0 0 0 0 0 0 0 0 0 0 0 0 0 0 1 0 0 0 0 0 0 0 0 0 0 0 0 0 0 0 0
1 1 1 1 1 1 1 1 1 1 1 0 0 0 0 0 0 0 0 0 0 0 0 0 0 0 0 0 0 0 0 0 0 0 0 0 0 0 0 0 0 0 0
1 1 1 1 1 1 1 1 1 1 0 0 0 0 0 0 0 0 0 0 0 0 0 0 0 0 0 0 0 0 0 0 0 0 0 0 0 0 0 0 0 0 0
1 1 1 1 1 1 1 1 1 1 0 0 0 0 0 0 0 0 0 0 0 0 0 0 0 0 0 0 0 0 0 0 0 0 0 0 0 0 0 0 0 0 0
0 0 0 0 1 1 1 1 0 0 0 0 0 0 0 0 0 0 0 0 0 0 0 0 0 0 0 0 0 0 0 0 0 0 0 0 0 0 0 0 0 0 0
0 0 0 0 0 0 0 0 0 0 0 0 0 0 0 0 0 0 0 0 0 0 0 0 0 0 0 0 0 0 0 0 0 0 0 0 0 0 0 0 0 0 0
0 0 0 0 0 0 0 0 0 0 0 0 0 0 0 0 0 0 0 0 0 0 0 0 0 0 0 0 0 0 0 0 0 0 0 0 0 0 0 0 0 0 0
0 0 0 0 0 0 0 0 0 0 0 0 0 0 0 0 0 0 0 0 0 0 0 0 0 0 0 0 0 0 0 0 0 0 0 0 0 0 0 0 0 0 0
0 0 0 0 0 0 0 0 0 0 0 0 0 0 0 0 0 0 0 0 0 0 0 0 0 0 0 0 0 0 0 0 0 0 0 0 0 0 0 0 0 -0 0
0 0 0 0 0 0 0 0 0 0 0 0 0 0 0 0 0 0 0 0 0 0 0 0 0 0 0 0 0 0 0 0 0 0 0 0 0 0 0 0 0 0 -0
0 0 0 0 0 0 0 0 0 0 0 0 0 0 0 0 0 0 0 0 0 0 0 0 0 0 0 0 0 0 0 0 0 0 0 0 0 0 0 0 0 0 -0
Wind_Speed
3 3 2 2 3 3 3 4 4 4 4 4 6 8 7 7 7 5 3 13 16 17 17 17 17 17 17 17 16 16 16 17 17 18 18 19 18 17 17 16 16 15 14
2 2 3 3 4 4 3 3 4 3 3 4 6 7 6 7 5 5 4 8 15 17 18 18 18 18 18 18 17 17 17 17 17 17 18 19 19 18 17 17 16 16 16
1 2 3 3 4 3 4 3 4 3 4 5 7 8 7 6 6 5 4 3 6 14 17 18 18 18 18 19 19 18 17 17 17 18 19 19 19 19 18 18 17 17 16
2 2 3 4 3 3 3 4 4 4 4 5 6 6 6 5 7 6 6 5 5 6 11 18 18 18 18 19 20 19 18 18 17 18 19 19 19 19 19 18 18 17 17
2 2 2 3 3 3 3 5 3 3 4 5 6 7 6 6 6 8 8 8 7 6 6 10 18 19 20 20 20 19 19 18 18 19 19 20 20 19 19 19 18 18 17
3 2 3 3 3 3 3 3 4 4 4 5 7 7 5 7 7 7 9 8 7 9 9 10 9 13 20 20 20 20 20 19 19 19 20 20 20 19 19 18 18 18 18
2 2 3 3 4 3 3 4 4 5 5 4 4 5 6 8 8 7 8 8 9 10 9 9 7 6 8 19 20 19 20 19 19 19 19 20 20 19 19 19 18 18 18
1 3 2 3 3 3 5 5 4 3 4 3 3 3 4 4 5 8 7 8 9 8 8 11 8 8 7 6 11 19 19 19 19 19 19 19 19 18 18 19 19 18 18
1 2 2 2 3 4 4 4 4 5 4 4 3 3 3 3 3 3 6 6 7 7 7 6 8 9 10 7 7 14 19 18 18 19 19 19 18 18 17 18 18 18 18
3 3 3 3 3 3 4 5 3 4 5 5 4 4 5 4 4 4 4 4 6 7 7 8 8 8 9 7 7 10 15 15 16 18 19 18 18 18 18 18 19 19 18
5 5 4 3 3 3 4 4 4 4 4 5 5 4 5 5 6 6 6 5 4 4 5 6 5 4 5 5 5 8 13 15 16 16 16 16 17 17 17 18 19 19 19
4 5 5 4 3 3 3 3 4 5 5 5 5 5 5 5 5 5 6 6 5 4 4 4 4 4 3 3 7 8 11 14 14 14 13 14 15 15 15 16 18 18 18
5 4 3 2 3 3 4 4 4 5 6 6 5 5 5 5 5 5 6 6 6 4 4 3 3 3 3 3 3 5 7 10 11 11 11 11 11 12 12 13 14 15 15
6 5 3 3 4 5 6 4 5 6 5 5 7 6 5 6 5 5 6 6 6 5 4 4 1 1 1 2 3 5 4 7 8 9 9 8 8 7 8 8 8 8 9
8 7 5 5 5 5 6 5 5 6 5 5 6 6 5 5 5 5 5 5 6 6 5 3 1 1 1 1 3 4 5 7 8 9 9 10 9 8 9 8 8 8 7
8 9 8 7 6 6 6 6 6 6 6 5 5 6 6 5 5 5 5 5 5 6 5 2 1 1 1 2 3 4 6 10 9 10 10 10 10 11 11 11 11 10 9
8 8 8 8 8 8 7 6 7 7 6 6 6 6 6 6 5 5 5 5 5 4 5 3 2 1 1 3 4 5 6 6 6 10 11 11 11 12 11 11 12 11 11
8 8 8 8 9 9 7 7 8 7 6 6 6 6 6 6 6 5 5 5 5 4 4 4 2 1 2 4 5 6 7 7 7 11 12 12 12 12 13 12 12 12 11
8 8 8 8 9 9 8 8 8 7 6 6 6 6 6 6 6 5 5 5 4 4 3 4 2 1 2 3 5 6 8 6 8 9 12 12 13 13 13 13 12 12 11
8 8 8 8 9 9 9 8 7 6 6 5 5 5 5 5 5 5 4 4 4 3 3 4 4 3 3 4 5 6 6 5 6 7 8 9 12 13 13 13 12 11 11
10 8 7 8 8 9 8 7 6 7 5 5 4 3 4 3 3 4 4 3 3 3 4 5 5 4 4 5 5 4 7 6 5 5 6 6 6 6 7 9 10 11 10
8 7 7 9 9 9 7 5 5 5 4 4 3 2 2 1 1 0 1 2 3 5 5 5 5 6 6 6 5 6 7 7 4 3 5 5 5 6 5 5 8 10 10
7 8 8 8 9 7 8 7 7 5 5 4 3 2 2 1 1 2 4 4 3 3 4 5 7 6 7 7 7 7 6 6 5 5 5 5 5 6 5 6 10 10 9
7 7 8 9 8 9 8 7 7 6 4 3 3 2 1 1 1 3 4 5 5 4 3 4 6 6 6 6 6 7 8 7 5 3 4 5 5 5 6 5 8 9 9
8 8 9 9 8 7 7 7 7 5 3 3 3 3 3 3 3 4 5 6 7 6 9 11 11 10 11 10 7 6 7 7 6 3 3 4 5 5 4 4 5 8 8
8 9 9 7 7 7 6 8 8 4 3 3 3 4 5 5 5 4 5 7 7 6 8 9 9 9 9 8 8 5 5 6 6 4 2 3 5 4 4 3 4 4 4
Wind_Direction
234 264 291 290 274 260 232 222 240 246 247 251 252 252 247 231 232 233 209 190 189 193 198 204 209 214 219 221 221 220 220 220 217 214 213 214 214 214 213 212 212 210 208
243 272 273 273 276 282 288 290 282 277 271 264 263 263 262 259 246 235 222 200 202 202 205 209 213 217 220 221 221 220 218 219 217 213 213 214 214 214 213 213 213 211 210
270 271 277 275 268 274 280 277 275 268 260 258 258 258 255 255 259 256 249 225 214 216 216 215 216 219 220 222 222 221 218 217 216 213 213 213 214 213 212 212 213 212 211
313 284 279 276 279 279 268 258 248 252 254 256 255 253 250 247 248 248 246 238 227 231 228 225 221 220 223 224 224 222 219 216 215 214 213 213 213 213 212 212 212 212 211
323 315 289 279 281 276 268 272 266 248 252 252 254 248 241 244 241 244 239 235 235 233 232 230 223 220 222 225 224 224 221 217 215 214 214 213 213 213 212 212 212 211 211
1 358 297 310 309 283 275 276 285 276 260 255 262 264 244 236 230 229 232 234 234 235 234 239 226 221 220 221 221 223 223 220 217 215 214 213 213 211 210 211 211 211 211
6 317 304 338 305 297 311 295 284 282 275 260 261 268 256 238 231 226 223 226 231 232 230 230 225 225 220 219 220 220 222 222 219 217 215 213 212 210 209 209 210 210 211
353 303 12 319 319 320 288 280 296 294 290 282 268 282 283 265 234 231 221 221 227 229 233 234 225 224 228 210 215 221 223 224 222 218 215 212 211 210 208 208 208 208 209
260 285 299 297 314 301 307 330 298 288 292 296 262 254 273 282 317 267 235 229 224 224 230 233 229 226 222 217 205 214 218 222 224 221 216 212 211 209 208 208 208 208 208
238 241 244 255 274 289 299 295 332 328 303 292 285 258 251 268 282 291 277 251 233 229 232 238 241 229 222 215 210 203 209 218 223 223 218 214 211 209 207 209 211 209 209
234 228 222 219 240 259 275 293 303 295 292 287 291 295 287 275 258 261 277 275 259 236 230 231 237 239 226 213 207 204 205 213 217 218 218 216 213 210 207 210 214 214 212
250 232 220 204 221 246 267 276 279 278 274 280 283 282 282 277 274 267 273 278 275 264 246 234 226 226 226 215 219 210 201 208 209 208 210 211 211 209 209 211 215 215 214
279 260 252 219 228 240 253 256 260 264 269 270 268 267 271 273 276 278 277 279 280 278 265 249 226 213 220 196 195 187 193 199 198 197 198 200 201 203 205 208 210 212 212
297 297 282 257 244 242 251 250 260 259 258 260 268 268 269 269 269 268 269 277 283 280 268 264 262 228 203 161 171 171 168 179 178 177 174 170 164 166 173 180 188 194 196
303 303 294 278 264 251 250 254 257 258 262 263 268 269 266 267 266 266 266 263 264 275 273 273 274 278 125 121 164 154 145 146 150 150 146 141 137 137 137 138 139 141 147
309 308 299 288 276 263 254 250 258 255 255 257 256 263 268 271 270 267 265 262 251 256 268 282 284 279 149 152 129 117 120 124 127 133 131 128 125 122 121 121 120 121 123
309 303 297 290 279 268 257 250 254 258 258 262 267 267 267 270 269 269 265 261 254 248 253 269 284 252 154 126 113 109 113 112 109 114 117 117 116 114 112 112 112 112 110
302 301 297 291 283 276 265 260 261 262 260 261 264 270 274 276 269 265 262 258 252 240 229 229 249 227 159 135 124 118 115 110 107 106 108 109 110 112 111 109 107 106 105
293 296 295 293 289 284 275 264 262 262 263 263 266 268 274 277 275 270 262 254 245 234 206 191 196 186 135 130 119 113 106 105 107 107 102 102 105 107 107 107 106 106 106
285 286 288 290 289 286 279 269 263 261 259 259 262 269 275 275 274 274 266 251 229 206 187 173 165 158 141 131 123 125 116 108 110 111 99 101 102 100 102 105 107 107 106
282 284 290 289 286 282 277 279 267 260 258 261 262 269 278 287 285 275 260 238 209 194 180 167 162 156 150 144 135 134 127 117 101 111 115 117 113 106 102 104 106 110 111
284 292 294 294 289 289 300 296 279 270 256 253 252 262 259 252 290 269 179 186 201 190 181 171 164 162 157 145 135 141 136 132 122 137 125 127 128 119 117 106 118 118 117
294 293 291 290 287 284 280 260 252 253 245 238 233 245 253 184 147 128 107 99 96 126 165 169 157 158 151 148 141 140 136 130 126 150 135 124 121 109 108 120 130 126 125
289 287 285 281 280 279 269 245 240 246 238 222 211 211 214 159 142 134 126 104 90 78 111 132 128 125 125 130 135 133 128 115 107 111 116 117 121 118 117 124 146 145 147
285 281 280 274 273 272 249 230 228 241 235 214 186 162 152 130 109 124 126 115 102 88 78 91 101 103 105 107 121 127 132 130 127 119 112 116 130 125 125 137 164 171 167
280 278 274 272 276 273 242 222 222 233 225 203 166 137 122 121 116 117 125 120 117 116 114 109 103 101 105 101 98 110 126 130 131 125 122 115 139 134 131 146 159 173 187